Morrisville, VT

12:13 PM EDT on July 27, 2016 (GMT -0400)
Morrisville Stowe State

Weather History for KMVL - February, 2012

Change the Weather History Date:

Monday, February 13, 2012

  Actual Average Record
Temperature  
Mean Temperature 21 °F 18 °F  
Max Temperature 30 °F 30 °F 39 °F (2011)
Min Temperature 11 °F 6 °F -18 °F (2003)
Degree Days  
Heating Degree Days 44 47  
Month to date heating degree days 572 628  
Since 1 July heating degree days 4577 5290  
Moisture  
Dew Point 10 °F    
Average Humidity 65    
Maximum Humidity 88    
Minimum Humidity 42    
Precipitation  
Precipitation T in 0.07 in 0.51 in (2008)
Month to date precipitation 0.02 0.80  
Year to date precipitation 0.91 3.34  
Sea Level Pressure  
Sea Level Pressure 29.83 in    
Wind  
Wind Speed 4 mph (North)    
Max Wind Speed 13 mph    
Max Gust Speed 20 mph    
Visibility 10 miles    
Events Snow    
T = Trace of Precipitation, MM = Missing Value Source: NWS Daily Summary

Daily Weather History Graph

Daily Weather History Graph

Search for Another Location

Airport or City:

Trip Planner

Search our weather history database for the weather conditions in past years. The results will help you decide how hot, cold, wet, or windy it might be!

Date:

Astronomy

Feb. 13, 2012 Rise Set
Actual Time 6:54 AM EST 5:15 PM EST
Civil Twilight 6:24 AM EST 5:45 PM EST
Nautical Twilight 5:49 AM EST 6:20 PM EST
Astronomical Twilight 5:16 AM EST 6:53 PM EST
Moon No Moon Rise 9:32 AM EST (2/13)
Length of Visible Light 11h 21m
Length of Day
10h 21m
Waning Gibbous, 62% of the Moon is Illuminated
Feb 13
Waning Gibbous
Feb 14
Last Quarter
Feb 21
New
Feb 29
First Quarter
Mar 8
Full

Hourly Weather History & Observations

Time (EST) Temp. Windchill Dew Point Humidity Pressure Visibility Wind Dir Wind Speed Gust Speed Precip Events Conditions
12:54 AM 12.0 °F 1.5 °F 1.9 °F 64% 29.81 in 10.0 mi Variable 6.9 mph - N/A   Overcast
1:54 AM 12.9 °F 1.6 °F 3.0 °F 65% 29.79 in 10.0 mi SSW 8.1 mph - N/A   Overcast
2:54 AM 15.1 °F 2.5 °F 1.9 °F 56% 29.78 in 10.0 mi South 10.4 mph - N/A   Overcast
3:54 AM 16.0 °F 4.4 °F 1.9 °F 54% 29.78 in 10.0 mi SSW 9.2 mph - N/A   Overcast
4:54 AM 17.1 °F 6.6 °F 6.1 °F 62% 29.78 in 10.0 mi South 8.1 mph - 0.00 in Snow Light Snow
5:54 AM 16.0 °F 10.4 °F 10.0 °F 77% 29.78 in 9.0 mi South 3.5 mph - 0.00 in Snow Light Snow
6:54 AM 16.0 °F - 12.0 °F 84% 29.79 in 9.0 mi Calm Calm - 0.00 in Snow Light Snow
7:03 AM 17.6 °F 12.3 °F 12.2 °F 79% 29.75 in 9.0 mi SSW 3.5 mph - 0.00 in Snow Light Snow
7:54 AM 18.0 °F 12.7 °F 12.0 °F 78% 29.81 in 9.0 mi Variable 3.5 mph - 0.00 in Snow Light Snow
8:45 AM 19.4 °F - 12.2 °F 74% 29.77 in 9.0 mi Calm Calm - 0.00 in Snow Light Snow
8:54 AM 19.0 °F 12.3 °F 12.9 °F 77% 29.82 in 9.0 mi ESE 4.6 mph - 0.00 in   Overcast
9:54 AM 21.0 °F 16.2 °F 10.9 °F 65% 29.83 in 10.0 mi North 3.5 mph - N/A   Overcast
10:54 AM 21.0 °F 12.4 °F 10.9 °F 65% 29.83 in 10.0 mi NNE 6.9 mph - N/A   Overcast
11:54 AM 24.1 °F - 10.0 °F 55% 29.81 in 10.0 mi Calm Calm - N/A   Overcast
12:54 PM 26.1 °F 21.9 °F 12.0 °F 55% 29.80 in 10.0 mi North 3.5 mph - N/A   Overcast
1:54 PM 28.9 °F 23.9 °F 9.0 °F 43% 29.79 in 10.0 mi Variable 4.6 mph - N/A   Partly Cloudy
2:54 PM 28.9 °F 25.2 °F 8.1 °F 41% 29.81 in 10.0 mi ENE 3.5 mph - N/A   Clear
3:54 PM 28.0 °F 22.8 °F 9.0 °F 45% 29.83 in 10.0 mi NNW 4.6 mph - N/A   Clear
4:54 PM 26.1 °F 20.5 °F 10.9 °F 53% 29.86 in 10.0 mi NNE 4.6 mph - N/A   Mostly Cloudy
5:54 PM 25.0 °F 20.7 °F 12.0 °F 58% 29.88 in 10.0 mi North 3.5 mph - N/A   Mostly Cloudy
6:54 PM 24.1 °F - 12.0 °F 60% 29.89 in 10.0 mi Calm Calm - N/A   Mostly Cloudy
7:54 PM 21.9 °F - 12.9 °F 68% 29.89 in 10.0 mi Calm Calm - N/A   Overcast
8:54 PM 21.9 °F 17.2 °F 14.0 °F 72% 29.91 in 10.0 mi North 3.5 mph - N/A   Overcast
9:54 PM 21.9 °F 17.2 °F 12.9 °F 68% 29.91 in 10.0 mi NNW 3.5 mph - N/A   Overcast
10:54 PM 21.9 °F 17.2 °F 12.9 °F 68% 29.91 in 10.0 mi North 3.5 mph - N/A   Overcast
11:54 PM 21.9 °F - 12.9 °F 68% 29.92 in 10.0 mi Calm Calm - N/A   Overcast